Гао

Мали     16°16′10″N   0°02′18″E
темп.,
°C
ветер,
м/с
пор.,
м/с
влажн.,
%
обл.,
%
осадки,
мм/ч
давл.,
гПа
погр.,
м
16 мая, вс
вс1600:00+34ююз222553 0.0 100815
03:00+32з222819 0.0 100611
06:00+32зюз23285 0.0 100812
09:00+38ююз221913 0.0 10091231
12:00+42всв26145 0.0 10074362
15:00+44в7875 0.0 10045206
18:00+41в44920 0.0 100440
21:00+37вюв451269 0.0 100646
17 мая, пн
пн1700:00+34юв44135 0.0 100719
03:00+31ю22165 0.0 100511
06:00+32ююв33185 0.0 100818
09:00+39всв111231 0.0 1009472
12:00+44ююз3795 0.0 10074974
15:00+45юв5665 0.0 10045590
18:00+42юв34814 0.0 100420
21:00+38ююв341188 0.0 100612
18 мая, вт
вт1800:00+34ююв33135 0.0 100611
03:00+33ююз44185 0.0 100626
06:00+32зюз572021 0.0 100772
09:00+40юз55155 0.0 1008911
12:00+44зюз781137 0.0 10064185
15:00+45ююз449100 0.0 10045006
18:00+42зюз5710100 0.0 1004101
21:00+37ююв69145 0.0 100795
19 мая, ср
ср1900:00+34зюз611205 0.0 1007132
03:00+33ююз56225 0.0 100652
06:00+32ю47255 0.0 100896
09:00+40юз89195 0.0 10081056
12:00+44зюз7513100 0.0 10063385
15:00+44ююз4311100 0.0 10044842
18:00+40ююз8111586 0.0 1005408
21:00+35юз462390 0.0 100768
20 мая, чт
чт2000:00+34юз5112539 0.0 1007171
03:00+34зюз592689 0.0 1005106
06:00+33зюз44265 0.0 100751
09:00+41юз771616 0.0 10081235
12:00+44зюз661346 0.0 10063703
15:00+44зюз541187 0.0 10034361
18:00+40сз101316100 0.1 10051075
21:00+38ссз61018100 0.0 1006183